EW0625 Weather Reports


Display with metric or nautical units.
time (UTC)temp
F
wind
direction
speed
MPH
gust
MPH
rain 1hr
in
rain 24hr
in
rain mn
in
humidity
%
barometer
mb
20260508204543 63 260 2.0 12.0 0.00 0.00 0.00 51 1006.0
20260508204022 63 252 4.0 12.0 0.00 0.00 0.00 47 1006.1
20260508203540 63 289 4.0 9.0 0.00 0.00 0.00 49 1006.2
20260508203018 63 307 5.0 9.0 0.00 0.00 0.00 50 1006.2
20260508202540 63 313 2.0 9.0 0.00 0.00 0.00 48 1006.3
20260508202024 63 301 4.0 12.0 0.00 0.00 0.00 47 1006.3
20260508201600 63 172 5.0 12.0 0.00 0.00 0.00 48 1006.4
20260508201502 63 221 6.0 11.0 0.00 0.00 0.00 47 1006.4
20260508201024 63 286 1.0 7.0 0.00 0.00 0.00 49 1006.4
20260508200559 63 244 3.0 10.0 0.00 0.00 0.00 47 1006.4
20260508200042 63 253 3.0 10.0 0.00 0.00 0.00 49 1006.6
20260508195521 63 297 2.0 6.0 0.00 0.00 0.00 47 1006.7
20260508195055 62 150 2.0 7.0 0.00 0.00 0.00 47 1006.7
20260508194537 62 312 0.0 9.0 0.00 0.00 0.00 50 1006.8
20260508194052 62 256 3.0 12.0 0.00 0.00 0.00 49 1007.0
20260508193532 63 278 5.0 12.0 0.00 0.00 0.00 48 1007.0
20260508193053 63 191 5.0 15.0 0.00 0.00 0.00 48 1007.1
20260508192531 63 286 3.0 10.0 0.00 0.00 0.00 50 1007.1
20260508192010 62 298 5.0 11.0 0.00 0.00 0.00 48 1007.3
20260508191530 63 270 3.0 8.0 0.00 0.00 0.00 51 1007.4
20260508191008 62 219 3.0 10.0 0.00 0.00 0.00 51 1007.4
20260508190530 62 228 2.0 10.0 0.00 0.00 0.00 49 1007.4
20260508190012 62 268 1.0 12.0 0.00 0.00 0.00 49 1007.6
20260508185532 63 240 8.0 12.0 0.00 0.00 0.00 48 1007.6
20260508185012 63 273 2.0 12.0 0.00 0.00 0.00 54 1007.7
20260508184551 62 303 2.0 11.0 0.00 0.00 0.00 53 1007.6
20260508184009 62 261 4.0 9.0 0.00 0.00 0.00 53 1007.9
20260508183547 62 236 2.0 7.0 0.00 0.00 0.00 51 1007.8
20260508183024 62 133 1.0 6.0 0.00 0.00 0.00 47 1008.0
20260508182545 62 143 1.0 14.0 0.00 0.00 0.00 52 1008.0
20260508182027 61 294 5.0 14.0 0.00 0.00 0.00 50 1008.1
20260508181506 62 259 4.0 14.0 0.00 0.00 0.00 50 1008.0
20260508181045 61 253 6.0 14.0 0.00 0.00 0.00 50 1008.1
20260508180504 61 268 2.0 10.0 0.00 0.00 0.00 49 1008.3
20260508180053 60 251 2.0 10.0 0.00 0.00 0.00 50 1008.3
20260508175556 61 271 2.0 15.0 0.00 0.00 0.00 49 1008.4
20260508175040 61 238 5.0 15.0 0.00 0.00 0.00 50 1008.5
20260508174528 61 258 4.0 8.0 0.00 0.00 0.00 49 1008.5
20260508174032 60 198 1.0 9.0 0.00 0.00 0.00 54 1008.6
20260508173508 60 231 3.0 12.0 0.00 0.00 0.00 54 1008.7
20260508173047 60 267 5.0 12.0 0.00 0.00 0.00 52 1008.6
20260508172512 60 128 2.0 8.0 0.00 0.00 0.00 53 1008.7
20260508172050 60 213 1.0 10.0 0.00 0.00 0.00 53 1008.7
20260508171523 60 251 3.0 10.0 0.00 0.00 0.00 52 1008.8
20260508171047 60 271 0.0 6.0 0.00 0.00 0.00 53 1008.9
20260508170517 59 107 1.0 7.0 0.00 0.00 0.00 53 1009.1
20260508170037 59 309 4.0 8.0 0.00 0.00 0.00 53 1009.1
20260508165520 59 258 3.0 8.0 0.00 0.00 0.00 53 1009.3
20260508165056 58 279 0.0 9.0 0.00 0.00 0.00 54 1009.3
20260508164518 58 296 4.0 9.0 0.00 0.00 0.00 53 1009.5
20260508164051 59 286 3.0 8.0 0.00 0.00 0.00 53 1009.6
20260508163513 58 296 1.0 10.0 0.00 0.00 0.00 55 1009.6
20260508163049 58 304 2.0 10.0 0.00 0.00 0.00 58 1009.6
20260508162534 58 296 4.0 10.0 0.00 0.00 0.00 55 1009.7
20260508162052 58 267 2.0 7.0 0.00 0.00 0.00 57 1009.7
20260508161536 58 295 2.0 7.0 0.00 0.00 0.00 55 1009.6
20260508161012 57 309 3.0 8.0 0.00 0.00 0.00 57 1009.7
20260508160533 57 239 2.0 8.0 0.00 0.00 0.00 56 1009.7
20260508160015 57 308 2.0 9.0 0.00 0.00 0.00 57 1009.8
20260508155549 57 256 2.0 9.0 0.00 0.00 0.00 57 1010.0
20260508155013 56 267 5.0 9.0 0.00 0.00 0.00 61 1010.0
20260508154546 56 309 1.0 8.0 0.00 0.00 0.00 64 1010.0
20260508154023 56 312 3.0 8.0 0.00 0.00 0.00 63 1010.0
20260508153543 56 331 3.0 6.0 0.00 0.00 0.00 64 1010.1
20260508153025 56 342 0.0 4.0 0.00 0.00 0.00 66 1010.1
20260508152601 55 80 0.0 1.0 0.00 0.00 0.00 67 1010.1
20260508152502 55 344 0.0 2.0 0.00 0.00 0.00 68 1010.1
20260508152041 55 344 0.0 4.0 0.00 0.00 0.00 68 1010.2
20260508151517 54 344 3.0 5.0 0.00 0.00 0.00 69 1010.3
20260508151041 54 343 2.0 5.0 0.00 0.00 0.00 70 1010.2
20260508150518 54 345 2.0 4.0 0.00 0.00 0.00 71 1010.3
20260508150035 54 347 0.0 5.0 0.00 0.00 0.00 73 1010.3
20260508145516 53 346 0.0 5.0 0.00 0.00 0.00 74 1010.3
20260508145050 53 5 3.0 4.0 0.00 0.00 0.00 74 1010.4
20260508144515 53 21 0.0 3.0 0.00 0.00 0.00 74 1010.5
20260508144051 53 21 0.0 4.0 0.00 0.00 0.00 73 1010.5
20260508143512 53 21 1.0 4.0 0.00 0.00 0.00 72 1010.4
20260508143055 53 321 0.0 6.0 0.00 0.00 0.00 74 1010.5
20260508142514 53 320 1.0 6.0 0.00 0.00 0.00 74 1010.5
20260508142047 53 26 0.0 6.0 0.00 0.00 0.00 73 1010.4
20260508141511 53 31 2.0 5.0 0.00 0.00 0.00 72 1010.3
20260508141041 53 331 1.0 6.0 0.00 0.00 0.00 76 1010.4
20260508140519 53 28 3.0 7.0 0.00 0.00 0.00 77 1010.5
20260508140041 52 355 3.0 7.0 0.00 0.00 0.00 78 1010.5
20260508135523 52 32 1.0 6.0 0.00 0.00 0.00 81 1010.6
20260508135100 51 300 1.0 5.0 0.00 0.00 0.00 81 1010.6
20260508135002 51 300 2.0 5.0 0.00 0.00 0.00 82 1010.5
20260508134531 51 313 1.0 5.0 0.00 0.00 0.00 82 1010.6
20260508134059 51 12 2.0 5.0 0.00 0.00 0.00 83 1010.7
20260508134002 50 321 1.0 5.0 0.00 0.00 0.00 82 1010.7
20260508133539 50 343 2.0 5.0 0.00 0.00 0.00 83 1010.7
20260508133056 50 302 1.0 5.0 0.00 0.00 0.00 86 1010.6
20260508132538 50 296 2.0 7.0 0.00 0.00 0.00 86 1010.7
20260508132015 49 325 2.0 7.0 0.00 0.00 0.00 87 1010.7
20260508131537 49 329 3.0 5.0 0.00 0.00 0.00 88 1010.7
20260508131015 49 301 2.0 5.0 0.00 0.00 0.00 88 1010.7
20260508130538 49 311 2.0 5.0 0.00 0.00 0.00 89 1010.8
20260508130017 48 305 1.0 5.0 0.00 0.00 0.00 90 1010.9
20260508125553 48 308 0.0 7.0 0.00 0.00 0.00 91 1010.9
20260508125018 47 280 2.0 7.0 0.00 0.00 0.00 91 1010.9
20260508124553 47 317 2.0 7.0 0.00 0.00 0.00 92 1010.9
20260508124035 47 268 2.0 6.0 0.00 0.00 0.00 92 1010.9
20260508123553 47 278 3.0 5.0 0.00 0.00 0.00 92 1010.9
20260508123036 46 306 1.0 7.0 0.00 0.00 0.00 93 1010.8
20260508122516 46 250 2.0 7.0 0.00 0.00 0.00 93 1010.8
20260508122052 46 302 1.0 6.0 0.00 0.00 0.00 94 1010.7
20260508121524 45 288 0.0 5.0 0.00 0.00 0.00 94 1010.6
20260508121052 45 269 1.0 4.0 0.00 0.00 0.00 94 1010.6
20260508120515 44 258 2.0 4.0 0.00 0.00 0.00 95 1010.5
20260508120047 44 269 0.0 0.0 0.00 0.00 0.00 95 1010.5
20260508115524 43 263 0.0 0.0 0.00 0.00 0.00 95 1010.4
20260508115047 43 263 0.0 2.0 0.00 0.00 0.00 95 1010.4
20260508114521 42 263 0.0 2.0 0.00 0.00 0.00 95 1010.3
20260508114044 41 263 0.0 0.0 0.00 0.00 0.00 95 1010.2
20260508113519 40 263 0.0 0.0 0.00 0.00 0.00 95 1010.3
20260508113040 39 263 0.0 0.0 0.00 0.00 0.00 94 1010.3
20260508112519 38 263 0.0 0.0 0.00 0.00 0.00 93 1010.2
20260508112040 37 263 0.0 0.0 0.00 0.00 0.00 92 1010.2
20260508111517 37 263 0.0 0.0 0.00 0.00 0.00 92 1010.1
20260508111041 37 263 0.0 0.0 0.00 0.00 0.00 92 1010.1
20260508110522 37 263 0.0 0.0 0.00 0.00 0.00 92 1010.1
20260508110059 37 263 0.0 0.0 0.00 0.00 0.00 92 1010.1
20260508110004 37 263 0.0 0.0 0.00 0.00 0.00 92 1010.0
20260508105541 37 263 0.0 0.0 0.00 0.00 0.00 92 1010.0
20260508105059 38 263 0.0 0.0 0.00 0.00 0.00 92 1010.0
20260508105001 38 263 0.0 0.0 0.00 0.00 0.00 92 1010.1
20260508104542 38 263 0.0 0.0 0.00 0.00 0.00 92 1010.0
20260508104058 38 263 0.0 0.0 0.00 0.00 0.00 92 1009.9
20260508103537 38 263 0.0 0.0 0.00 0.00 0.00 92 1009.8
20260508103034 38 263 0.0 0.0 0.00 0.00 0.00 92 1009.9
20260508102547 38 263 0.0 0.0 0.00 0.00 0.00 92 1009.9
20260508102029 38 263 0.0 0.0 0.00 0.00 0.00 92 1009.9
20260508101507 38 263 0.0 0.0 0.00 0.00 0.00 92 1009.9
20260508101047 38 263 0.0 0.0 0.00 0.00 0.00 92 1009.9
20260508100513 38 263 0.0 0.0 0.00 0.00 0.00 92 1009.8
20260508100046 38 263 0.0 0.0 0.00 0.00 0.00 92 1009.9
20260508095510 38 263 0.0 0.0 0.00 0.00 0.00 92 1009.9
20260508095047 38 263 0.0 0.0 0.00 0.00 0.00 92 1009.9
20260508094529 38 263 0.0 0.0 0.00 0.00 0.00 92 1010.0
20260508094050 38 263 0.0 0.0 0.00 0.00 0.00 92 1010.0
20260508093526 38 263 0.0 0.0 0.00 0.00 0.00 92 1010.0
20260508093059 38 263 0.0 0.0 0.00 0.00 0.00 92 1010.0
20260508092522 38 263 0.0 0.0 0.00 0.00 0.00 92 1010.0
20260508092058 38 263 0.0 0.0 0.00 0.00 0.00 92 1010.1
20260508091542 38 263 0.0 0.0 0.00 0.00 0.00 92 1010.1
20260508091100 38 263 0.0 0.0 0.00 0.00 0.00 92 1010.0
20260508091008 38 263 0.0 0.0 0.00 0.00 0.00 92 1010.0
20260508090541 38 263 0.0 0.0 0.00 0.00 0.00 92 1010.0
20260508090055 38 263 0.0 0.0 0.00 0.00 0.00 92 1009.9
20260508085531 38 263 0.0 0.0 0.00 0.00 0.00 92 1010.0
20260508085048 38 263 0.0 0.0 0.00 0.00 0.00 92 1009.9
20260508084531 38 263 0.0 0.0 0.00 0.00 0.00 92 1009.8
20260508084010 38 263 0.0 0.0 0.00 0.00 0.00 92 1009.8
20260508083535 38 263 0.0 0.0 0.00 0.00 0.00 91 1009.8
20260508083049 38 263 0.0 0.0 0.00 0.00 0.00 91 1009.9
20260508082526 38 263 0.0 0.0 0.00 0.00 0.00 92 1009.9
20260508082004 38 263 0.0 0.0 0.00 0.00 0.00 91 1009.9
20260508081551 38 263 0.0 0.0 0.00 0.00 0.00 91 1010.0
20260508081042 38 263 0.0 0.0 0.00 0.00 0.00 91 1010.0
20260508080524 38 263 0.0 0.0 0.00 0.00 0.00 91 1010.2
20260508080100 39 263 0.0 0.0 0.00 0.00 0.00 91 1010.1
20260508080003 39 263 0.0 0.0 0.00 0.00 0.00 91 1010.1
20260508075528 39 263 0.0 0.0 0.00 0.00 0.00 91 1010.2
20260508075004 39 263 0.0 0.0 0.00 0.00 0.00 91 1010.2
20260508074526 40 263 0.0 0.0 0.00 0.00 0.00 91 1010.2
20260508074004 40 263 0.0 0.0 0.00 0.00 0.00 91 1010.3
20260508073542 40 263 0.0 0.0 0.00 0.00 0.00 91 1010.3
20260508073022 40 263 0.0 0.0 0.00 0.00 0.00 91 1010.4
20260508072540 40 263 0.0 0.0 0.00 0.00 0.00 90 1010.4
20260508072023 40 263 0.0 0.0 0.00 0.00 0.00 90 1010.3
20260508071600 41 263 0.0 0.0 0.00 0.00 0.00 90 1010.4
20260508071022 41 263 0.0 0.0 0.00 0.00 0.00 90 1010.3
20260508070559 41 263 0.0 0.0 0.00 0.00 0.00 90 1010.3
20260508070039 41 263 0.0 0.0 0.00 0.00 0.00 90 1010.4
20260508065519 42 263 0.0 0.0 0.00 0.00 0.00 90 1010.3
20260508065050 42 263 0.0 0.0 0.00 0.00 0.00 90 1010.4
20260508064532 42 263 0.0 0.0 0.00 0.00 0.00 90 1010.4
20260508064052 42 263 0.0 0.0 0.00 0.00 0.00 90 1010.5
20260508063531 42 263 0.0 0.0 0.00 0.00 0.00 89 1010.5
20260508063056 42 263 0.0 0.0 0.00 0.00 0.00 89 1010.5
20260508062532 42 263 0.0 0.0 0.00 0.00 0.00 90 1010.5
20260508062008 42 263 0.0 0.0 0.00 0.00 0.00 90 1010.5
20260508061528 42 263 0.0 0.0 0.00 0.00 0.00 89 1010.5
20260508061005 42 263 0.0 0.0 0.00 0.00 0.00 90 1010.5
20260508060540 42 263 0.0 0.0 0.00 0.00 0.00 89 1010.4
20260508060105 42 263 0.0 0.0 0.00 0.00 0.00 89 1010.4
20260508055540 42 263 0.0 0.0 0.00 0.00 0.00 89 1010.5
20260508055059 42 263 0.0 0.0 0.00 0.00 0.00 89 1010.4
20260508054538 42 263 0.0 0.0 0.00 0.00 0.00 89 1010.4
20260508054055 42 263 0.0 0.0 0.00 0.00 0.00 89 1010.3
20260508053538 42 263 0.0 0.0 0.00 0.00 0.00 89 1010.5
20260508053021 42 263 0.0 0.0 0.00 0.00 0.00 89 1010.5
20260508052537 42 265 0.0 0.0 0.00 0.00 0.00 89 1010.4
20260508052019 42 265 0.0 0.0 0.00 0.00 0.00 89 1010.5
20260508051557 42 263 0.0 0.0 0.00 0.00 0.00 88 1010.6
20260508051040 42 263 0.0 0.0 0.00 0.00 0.00 88 1010.6
20260508050522 42 263 0.0 0.0 0.00 0.00 0.00 88 1010.6
20260508050052 42 263 0.0 0.0 0.00 0.00 0.00 87 1010.6
20260508045529 42 263 0.0 0.0 0.00 0.00 0.00 87 1010.6
20260508045015 42 263 0.0 0.0 0.00 0.00 0.00 87 1010.6
20260508044550 42 263 0.0 0.0 0.00 0.00 0.00 87 1010.6
20260508044027 43 263 0.0 0.0 0.00 0.00 0.00 86 1010.6
20260508043544 43 263 0.0 0.0 0.00 0.00 0.00 86 1010.5
20260508043022 43 263 0.0 0.0 0.00 0.00 0.00 86 1010.4
20260508042542 43 263 0.0 0.0 0.00 0.00 0.00 85 1010.4
20260508042019 43 263 0.0 0.0 0.00 0.00 0.00 86 1010.4
20260508041544 43 263 0.0 0.0 0.00 0.00 0.00 85 1010.5
20260508041026 43 263 0.0 0.0 0.00 0.00 0.00 85 1010.5
20260508040504 43 263 0.0 0.0 0.00 0.00 0.00 85 1010.4
20260508040045 43 263 0.0 0.0 0.00 0.00 0.00 84 1010.5
20260508035515 43 263 0.0 0.0 0.00 0.00 0.00 84 1010.5
20260508035037 44 263 0.0 0.0 0.00 0.00 0.00 84 1010.5
20260508034515 44 262 0.0 0.0 0.00 0.00 0.00 83 1010.5
20260508034036 44 262 0.0 0.0 0.00 0.00 0.00 82 1010.5
20260508033514 45 262 0.0 0.0 0.00 0.00 0.00 82 1010.6
20260508033037 45 262 0.0 0.0 0.00 0.00 0.00 81 1010.6
20260508032521 45 262 0.0 0.0 0.00 0.00 0.00 81 1010.5
20260508032045 45 262 0.0 0.0 0.00 0.00 0.00 80 1010.5
20260508031527 46 262 0.0 0.0 0.00 0.00 0.00 79 1010.5
20260508031008 46 262 0.0 0.0 0.00 0.00 0.00 79 1010.6
20260508030525 46 262 0.0 0.0 0.00 0.00 0.00 78 1010.6
20260508030006 47 262 0.0 0.0 0.00 0.00 0.00 77 1010.7
20260508025527 47 262 0.0 0.0 0.00 0.00 0.00 77 1010.8
20260508025100 47 262 0.0 0.0 0.00 0.00 0.00 76 1010.8
20260508025004 47 262 0.0 0.0 0.00 0.00 0.00 76 1010.8
20260508024543 47 262 0.0 6.0 0.00 0.00 0.00 76 1010.8
20260508024007 47 262 1.0 6.0 0.00 0.00 0.00 76 1010.8
20260508023523 47 259 0.0 2.0 0.00 0.00 0.00 76 1010.8
20260508023059 48 259 0.0 3.0 0.00 0.00 0.00 75 1010.8
20260508023001 48 259 0.0 3.0 0.00 0.00 0.00 76 1010.8
20260508022541 48 259 0.0 4.0 0.00 0.00 0.00 76 1010.8
20260508022057 48 259 0.0 4.0 0.00 0.00 0.00 75 1010.8
20260508021539 48 262 0.0 0.0 0.00 0.00 0.00 75 1010.8
20260508021016 48 262 0.0 0.0 0.00 0.00 0.00 76 1010.7
20260508020537 48 262 0.0 0.0 0.00 0.00 0.00 75 1010.7
20260508020015 48 262 0.0 4.0 0.00 0.00 0.00 75 1010.7
20260508015530 49 262 0.0 4.0 0.00 0.00 0.00 73 1010.7
20260508015004 49 260 0.0 0.0 0.00 0.00 0.00 73 1010.7
20260508014528 49 260 0.0 0.0 0.00 0.00 0.00 73 1010.7
20260508014058 49 238 0.0 3.0 0.00 0.00 0.00 72 1010.7
20260508014003 49 237 0.0 4.0 0.00 0.00 0.00 72 1010.7
20260508013522 50 236 0.0 7.0 0.00 0.00 0.00 71 1010.5
20260508013059 50 232 2.0 7.0 0.00 0.00 0.00 70 1010.5
20260508013000 50 225 0.0 5.0 0.00 0.00 0.00 70 1010.4
20260508012540 50 284 0.0 5.0 0.00 0.00 0.00 69 1010.5
20260508012057 50 282 0.0 5.0 0.00 0.00 0.00 68 1010.4
20260508011539 50 236 0.0 6.0 0.00 0.00 0.00 67 1010.4
20260508011100 51 234 1.0 6.0 0.00 0.00 0.00 67 1010.4
20260508010539 51 252 0.0 9.0 0.00 0.00 0.00 66 1010.4
20260508010054 51 222 3.0 9.0 0.00 0.00 0.00 65 1010.4
20260508005541 51 281 0.0 3.0 0.00 0.00 0.00 65 1010.2
20260508005054 51 284 0.0 4.0 0.00 0.00 0.00 65 1010.2
20260508004536 51 285 1.0 7.0 0.00 0.00 0.00 64 1010.2
20260508004017 51 250 0.0 7.0 0.00 0.00 0.00 64 1010.1
20260508003537 51 248 2.0 11.0 0.00 0.00 0.00 63 1010.1
20260508003015 51 134 2.0 11.0 0.00 0.00 0.00 61 1010.1
20260508002538 52 252 1.0 5.0 0.00 0.00 0.00 60 1010.0
20260508002018 52 240 0.0 0.0 0.00 0.00 0.00 59 1010.0
20260508001555 52 240 0.0 0.0 0.00 0.00 0.00 60 1010.0
20260508001018 52 240 0.0 0.0 0.00 0.00 0.00 56 1009.9
20260508000553 52 240 0.0 0.0 0.00 0.00 0.00 56 1009.9
20260508000016 52 240 0.0 0.0 0.00 0.00 0.00 56 1009.9
20260507235552 53 240 0.0 4.0 0.00 0.00 0.00 55 1009.9
20260507235037 53 252 0.0 6.0 0.00 0.00 0.00 55 1009.9
20260507234551 53 244 1.0 8.0 0.00 0.00 0.00 54 1009.9
20260507234035 53 252 0.0 8.0 0.00 0.00 0.00 54 1010.0
20260507233551 53 278 0.0 8.0 0.00 0.00 0.00 53 1010.0
20260507233041 53 278 1.0 8.0 0.00 0.00 0.00 53 1010.0
20260507232548 53 232 1.0 4.0 0.00 0.00 0.00 52 1010.0
20260507232032 53 259 0.0 6.0 0.00 0.00 0.00 51 1010.1
20260507231548 53 248 1.0 8.0 0.00 0.00 0.00 50 1010.1
20260507231028 53 270 0.0 8.0 0.00 0.00 0.00 51 1010.1
20260507230506 54 215 1.0 8.0 0.00 0.00 0.00 50 1010.2
20260507230028 54 242 1.0 5.0 0.00 0.00 0.00 50 1010.1
20260507225510 54 294 1.0 4.0 0.00 0.00 0.00 49 1010.1
20260507225032 54 298 0.0 5.0 0.00 0.00 0.00 48 1010.2
20260507224516 54 276 0.0 5.0 0.00 0.00 0.00 48 1010.3
20260507224050 54 234 1.0 7.0 0.00 0.00 0.00 48 1010.3
20260507223512 55 249 2.0 8.0 0.00 0.00 0.00 47 1010.3
20260507223048 54 278 3.0 8.0 0.00 0.00 0.00 47 1010.2
20260507222516 54 318 1.0 4.0 0.00 0.00 0.00 49 1010.3
20260507222050 54 261 0.0 4.0 0.00 0.00 0.00 49 1010.3
20260507221538 54 286 0.0 9.0 0.00 0.00 0.00 49 1010.2
20260507221005 55 304 1.0 9.0 0.00 0.00 0.00 47 1010.3
20260507220526 55 282 0.0 7.0 0.00 0.00 0.00 46 1010.4
20260507220006 56 315 1.0 11.0 0.00 0.00 0.00 51 1010.3
20260507215528 56 300 2.0 11.0 0.00 0.00 0.00 45 1010.3
20260507215006 55 291 1.0 8.0 0.00 0.00 0.00 48 1010.3
20260507214522 55 256 1.0 10.0 0.00 0.00 0.00 47 1010.2
20260507214056 55 289 2.0 12.0 0.00 0.00 0.00 45 1010.3
20260507213514 55 324 2.0 8.0 0.00 0.00 0.00 49 1010.3
20260507213049 55 310 3.0 8.0 0.00 0.00 0.00 48 1010.4
20260507212541 55 300 1.0 7.0 0.00 0.00 0.00 48 1010.3
20260507212050 55 298 1.0 5.0 0.00 0.00 0.00 49 1010.4
20260507211526 54 283 1.0 10.0 0.00 0.00 0.00 46 1010.4
20260507211043 55 318 2.0 10.0 0.00 0.00 0.00 47 1010.5
20260507210518 56 315 2.0 11.0 0.00 0.00 0.00 46 1010.5
20260507210040 56 350 4.0 11.0 0.00 0.00 0.00 47 1010.4
20260507205518 56 329 2.0 9.0 0.00 0.00 0.00 46 1010.4
20260507205039 55 248 3.0 9.0 0.00 0.00 0.00 48 1010.4